Mount Ida, AR

3:57 PM CDT on March 24, 2017 (GMT -0500)
Mount Ida

Weather History for KMWT - November, 2012

Change the Weather History Date:

Wednesday, November 28, 2012

  Actual Average (KHOT) Record (KHOT)
Temperature  
Mean Temperature 41 °F -  
Max Temperature 57 °F 55 °F 76 °F (1949)
Min Temperature 25 °F 34 °F 20 °F (1975)
Degree Days  
Heating Degree Days 24    
Moisture  
Dew Point 31 °F    
Average Humidity 75    
Maximum Humidity 96    
Minimum Humidity 37    
Precipitation  
Precipitation 0.00 in - - ()
Sea Level Pressure  
Sea Level Pressure 30.39 in    
Wind  
Wind Speed 0 mph (North)    
Max Wind Speed 5 mph    
Max Gust Speed -    
Visibility 10 miles    
Events      
Averages and records for this station are not official NWS values.
T = Trace of Precipitation, MM = Missing Value Source: NWS Daily Summary

Daily Weather History Graph

Daily Weather History Graph

Search for Another Location

Airport or City:

Trip Planner

Search our weather history database for the weather conditions in past years. The results will help you decide how hot, cold, wet, or windy it might be!

Date:

Astronomy

Nov. 28, 2012 Rise Set
Actual Time 7:00 AM CST 5:04 PM CST
Civil Twilight 6:33 AM CST 5:31 PM CST
Nautical Twilight 6:02 AM CST 6:02 PM CST
Astronomical Twilight 5:31 AM CST 6:32 PM CST
Moon 5:19 PM CST (11/28) 6:58 AM CST (11/28)
Length of Visible Light 10h 58m
Length of Day
10h 03m
Full, 100% of the Moon is Illuminated
Nov 28
Full
Dec 6
Last Quarter
Dec 13
New
Dec 19
First Quarter
Dec 28
Full

Hourly Weather History & Observations

Time (CST) Temp. Dew Point Humidity Pressure Visibility Wind Dir Wind Speed Gust Speed Precip Events Conditions
12:53 AM 28.9 °F 28.0 °F 96% 30.38 in 10.0 mi Calm Calm - N/A   Clear
1:53 AM 28.0 °F 27.0 °F 96% 30.38 in 10.0 mi Calm Calm - N/A   Clear
2:53 AM 28.0 °F 26.1 °F 92% 30.38 in 10.0 mi Calm Calm - N/A   Clear
3:53 AM 28.0 °F 27.0 °F 96% 30.39 in 10.0 mi Calm Calm - N/A   Clear
4:53 AM 26.1 °F 24.1 °F 92% 30.39 in 10.0 mi Calm Calm - N/A   Clear
5:53 AM 25.0 °F 24.1 °F 96% 30.43 in 10.0 mi Calm Calm - N/A   Clear
6:53 AM 25.0 °F 23.0 °F 92% 30.44 in 10.0 mi Calm Calm - N/A   Clear
7:53 AM 28.0 °F 27.0 °F 96% 30.47 in 10.0 mi Calm Calm - N/A   Clear
8:53 AM 35.1 °F 32.0 °F 89% 30.49 in 10.0 mi Calm Calm - N/A   Clear
9:53 AM 43.0 °F 35.1 °F 74% 30.49 in 10.0 mi Calm Calm - N/A   Clear
10:53 AM 50.0 °F 36.0 °F 59% 30.47 in 10.0 mi Calm Calm - N/A   Clear
11:53 AM 55.0 °F 34.0 °F 45% 30.43 in 10.0 mi Calm Calm - N/A   Clear
12:53 PM 57.9 °F 34.0 °F 41% 30.40 in 10.0 mi Calm Calm - N/A   Clear
1:53 PM 57.9 °F 33.1 °F 39% 30.37 in 10.0 mi Variable 3.5 mph - N/A   Clear
2:53 PM 57.9 °F 32.0 °F 37% 30.35 in 10.0 mi Calm Calm - N/A   Clear
3:53 PM 57.0 °F 34.0 °F 42% 30.34 in 10.0 mi Variable 4.6 mph - N/A   Clear
4:53 PM 53.1 °F 34.0 °F 48% 30.35 in 10.0 mi Calm Calm - N/A   Clear
5:53 PM 48.0 °F 35.1 °F 61% 30.35 in 10.0 mi Calm Calm - N/A   Clear
6:53 PM 44.1 °F 35.1 °F 71% 30.36 in 10.0 mi Calm Calm - N/A   Clear
7:53 PM 39.9 °F 34.0 °F 79% 30.35 in 10.0 mi Calm Calm - N/A   Clear
8:53 PM 36.0 °F 32.0 °F 86% 30.35 in 10.0 mi Calm Calm - N/A   Clear
9:53 PM 34.0 °F 32.0 °F 92% 30.35 in 10.0 mi Calm Calm - N/A   Clear
10:53 PM 33.1 °F 30.9 °F 92% 30.32 in 10.0 mi Calm Calm - N/A   Clear
11:53 PM 30.9 °F 30.0 °F 96% 30.32 in 10.0 mi Calm Calm - N/A   Clear